| time (UTC) | temp F | wind direction | speed MPH | gust MPH | rain 1hr in | rain 24hr in | rain mn in | humidity % | barometer mb |
| 20260505065709 | 55 | 290 | 0.0 | 0.0 | 0.00 | 0.00 | 0.00 | 82 | 1008.6 |
| 20260505064710 | 56 | 270 | 0.0 | 0.0 | 0.00 | 0.00 | 0.00 | 82 | 1008.6 |
| 20260505064208 | 56 | 270 | 0.0 | 0.0 | 0.00 | 0.00 | 0.00 | 81 | 1008.5 |
| 20260505063710 | 56 | 269 | 0.0 | 1.0 | 0.00 | 0.00 | 0.00 | 81 | 1008.6 |
| 20260505063208 | 56 | 267 | 0.0 | 1.0 | 0.00 | 0.00 | 0.00 | 81 | 1008.6 |
| 20260505062706 | 56 | 285 | 0.0 | 1.0 | 0.00 | 0.00 | 0.00 | 80 | 1008.6 |
| 20260505062206 | 56 | 310 | 0.0 | 1.0 | 0.00 | 0.00 | 0.00 | 80 | 1008.7 |
| 20260505061207 | 56 | 301 | 0.0 | 1.0 | 0.00 | 0.00 | 0.00 | 80 | 1008.7 |
| 20260505060706 | 56 | 301 | 0.0 | 1.0 | 0.00 | 0.00 | 0.00 | 80 | 1008.7 |
| 20260505060207 | 56 | 312 | 0.0 | 1.0 | 0.00 | 0.00 | 0.00 | 80 | 1008.7 |
| 20260505055707 | 56 | 312 | 0.0 | 1.0 | 0.00 | 0.00 | 0.00 | 80 | 1008.8 |
| 20260505055207 | 56 | 267 | 0.0 | 0.0 | 0.00 | 0.00 | 0.00 | 80 | 1008.9 |
| 20260505054706 | 56 | 243 | 0.0 | 0.0 | 0.00 | 0.00 | 0.00 | 80 | 1008.8 |
| 20260505054206 | 56 | 243 | 0.0 | 0.0 | 0.00 | 0.00 | 0.00 | 79 | 1008.9 |
| 20260505053706 | 56 | 243 | 0.0 | 0.0 | 0.00 | 0.00 | 0.00 | 79 | 1008.9 |
| 20260505053205 | 56 | 243 | 0.0 | 0.0 | 0.00 | 0.00 | 0.00 | 80 | 1008.9 |
| 20260505052204 | 56 | 242 | 0.0 | 0.0 | 0.00 | 0.00 | 0.00 | 80 | 1009.0 |
| 20260505051704 | 56 | 242 | 0.0 | 0.0 | 0.00 | 0.00 | 0.00 | 79 | 1009.0 |
| 20260505051205 | 56 | 242 | 0.0 | 0.0 | 0.00 | 0.00 | 0.00 | 79 | 1009.0 |
| 20260505050705 | 57 | 242 | 0.0 | 0.0 | 0.00 | 0.00 | 0.00 | 78 | 1009.0 |
| 20260505050204 | 57 | 242 | 0.0 | 0.0 | 0.00 | 0.00 | 0.00 | 78 | 1008.9 |
| 20260505041702 | 56 | 295 | 0.0 | 0.0 | 0.00 | 0.00 | 0.00 | 78 | 1009.2 |
| 20260505041203 | 56 | 293 | 0.0 | 0.0 | 0.00 | 0.00 | 0.00 | 78 | 1009.3 |
| 20260505040702 | 56 | 293 | 0.0 | 0.0 | 0.00 | 0.00 | 0.00 | 78 | 1009.3 |
| 20260505040201 | 56 | 292 | 0.0 | 3.0 | 0.00 | 0.00 | 0.00 | 78 | 1009.2 |
| 20260505035701 | 56 | 292 | 0.0 | 3.0 | 0.00 | 0.00 | 0.00 | 78 | 1009.3 |
| 20260505035202 | 56 | 273 | 0.0 | 0.0 | 0.00 | 0.00 | 0.00 | 77 | 1009.3 |
| 20260505034702 | 56 | 273 | 0.0 | 1.0 | 0.00 | 0.00 | 0.00 | 77 | 1009.3 |
| 20260505034202 | 57 | 273 | 0.0 | 1.0 | 0.00 | 0.00 | 0.00 | 76 | 1009.3 |
| 20260505033701 | 57 | 273 | 0.0 | 1.0 | 0.00 | 0.00 | 0.00 | 76 | 1009.3 |
| 20260505033200 | 57 | 273 | 0.0 | 1.0 | 0.00 | 0.00 | 0.00 | 76 | 1009.3 |
| 20260505032659 | 57 | 302 | 0.0 | 0.0 | 0.00 | 0.00 | 0.00 | 76 | 1009.4 |
| 20260505030700 | 57 | 303 | 0.0 | 1.0 | 0.00 | 0.00 | 0.00 | 78 | 1009.3 |
| 20260505025659 | 56 | 303 | 0.0 | 0.0 | 0.00 | 0.00 | 0.00 | 78 | 1009.2 |
| 20260505025159 | 56 | 303 | 0.0 | 0.0 | 0.00 | 0.00 | 0.00 | 78 | 1009.3 |
| 20260505024158 | 57 | 303 | 0.0 | 0.0 | 0.00 | 0.00 | 0.00 | 78 | 1009.4 |
| 20260505023157 | 57 | 303 | 0.0 | 0.0 | 0.00 | 0.00 | 0.00 | 77 | 1009.4 |
| 20260505022658 | 57 | 303 | 0.0 | 0.0 | 0.00 | 0.00 | 0.00 | 77 | 1009.5 |
| 20260505021659 | 57 | 303 | 0.0 | 1.0 | 0.00 | 0.00 | 0.00 | 77 | 1009.4 |
| 20260505021157 | 57 | 303 | 0.0 | 1.0 | 0.00 | 0.00 | 0.00 | 76 | 1009.5 |
| 20260505020658 | 57 | 303 | 0.0 | 1.0 | 0.00 | 0.00 | 0.00 | 76 | 1009.5 |
| 20260505020158 | 57 | 303 | 0.0 | 1.0 | 0.00 | 0.00 | 0.00 | 76 | 1009.4 |
| 20260505015658 | 57 | 303 | 0.0 | 0.0 | 0.00 | 0.00 | 0.00 | 76 | 1009.4 |
| 20260505015156 | 57 | 303 | 0.0 | 1.0 | 0.00 | 0.00 | 0.00 | 76 | 1009.4 |
| 20260505014654 | 57 | 303 | 0.0 | 1.0 | 0.00 | 0.00 | 0.00 | 75 | 1009.4 |
| 20260505014155 | 58 | 303 | 0.0 | 0.0 | 0.00 | 0.00 | 0.00 | 75 | 1009.4 |
| 20260505013656 | 58 | 303 | 0.0 | 0.0 | 0.00 | 0.00 | 0.00 | 75 | 1009.4 |
| 20260505013155 | 58 | 303 | 0.0 | 0.0 | 0.00 | 0.00 | 0.00 | 75 | 1009.3 |
| 20260505012655 | 58 | 304 | 0.0 | 0.0 | 0.00 | 0.00 | 0.00 | 74 | 1009.3 |
| 20260505012155 | 58 | 304 | 0.0 | 1.0 | 0.00 | 0.00 | 0.00 | 74 | 1009.2 |
| 20260505011655 | 58 | 303 | 0.0 | 1.0 | 0.00 | 0.00 | 0.00 | 73 | 1009.2 |
| 20260505011155 | 58 | 293 | 0.0 | 2.0 | 0.00 | 0.00 | 0.00 | 73 | 1009.1 |
| 20260505010655 | 59 | 285 | 0.0 | 2.0 | 0.00 | 0.00 | 0.00 | 73 | 1009.1 |
| 20260505010152 | 59 | 251 | 0.0 | 2.0 | 0.00 | 0.00 | 0.00 | 73 | 1009.0 |
| 20260505005153 | 58 | 296 | 0.0 | 2.0 | 0.00 | 0.00 | 0.00 | 73 | 1008.9 |
| 20260505004653 | 58 | 309 | 0.0 | 2.0 | 0.00 | 0.00 | 0.00 | 73 | 1008.7 |
| 20260505004153 | 58 | 12 | 0.0 | 1.0 | 0.00 | 0.00 | 0.00 | 73 | 1008.7 |
| 20260505003652 | 59 | 328 | 0.0 | 2.0 | 0.00 | 0.00 | 0.00 | 72 | 1008.6 |
| 20260505003154 | 59 | 293 | 0.0 | 3.0 | 0.00 | 0.00 | 0.00 | 72 | 1008.4 |
| 20260505002654 | 59 | 236 | 0.0 | 3.0 | 0.00 | 0.00 | 0.00 | 72 | 1008.4 |
| 20260505002153 | 59 | 280 | 1.0 | 6.0 | 0.00 | 0.00 | 0.00 | 72 | 1008.4 |
| 20260505001654 | 59 | 283 | 1.0 | 6.0 | 0.00 | 0.00 | 0.00 | 73 | 1008.3 |
| 20260505001152 | 58 | 280 | 0.0 | 4.0 | 0.00 | 0.00 | 0.00 | 73 | 1008.3 |
| 20260505000651 | 58 | 287 | 0.0 | 2.0 | 0.00 | 0.00 | 0.00 | 74 | 1008.1 |
| 20260505000151 | 58 | 299 | 0.0 | 2.0 | 0.00 | 0.00 | 0.00 | 74 | 1008.1 |
| 20260504235651 | 57 | 39 | 0.0 | 1.0 | 0.00 | 0.00 | 0.00 | 75 | 1008.1 |
| 20260504235152 | 57 | 14 | 0.0 | 1.0 | 0.00 | 0.00 | 0.00 | 75 | 1008.0 |
| 20260504234152 | 57 | 257 | 0.0 | 7.0 | 0.00 | 0.00 | 0.00 | 75 | 1007.9 |
| 20260504233651 | 58 | 258 | 1.0 | 7.0 | 0.00 | 0.00 | 0.00 | 75 | 1007.7 |
| 20260504233151 | 58 | 239 | 2.0 | 9.0 | 0.00 | 0.00 | 0.00 | 75 | 1007.7 |
| 20260504232651 | 58 | 244 | 2.0 | 9.0 | 0.00 | 0.00 | 0.00 | 75 | 1007.6 |
| 20260504231650 | 58 | 255 | 5.0 | 11.0 | 0.00 | 0.00 | 0.00 | 74 | 1007.5 |
| 20260504231149 | 58 | 239 | 5.0 | 14.0 | 0.00 | 0.00 | 0.00 | 74 | 1007.4 |
| 20260504230648 | 58 | 263 | 6.0 | 14.0 | 0.00 | 0.00 | 0.00 | 74 | 1007.4 |
| 20260504230150 | 58 | 257 | 7.0 | 14.0 | 0.00 | 0.00 | 0.00 | 74 | 1007.3 |
| 20260504225148 | 58 | 259 | 6.0 | 14.0 | 0.00 | 0.00 | 0.00 | 73 | 1007.3 |
| 20260504224650 | 59 | 238 | 8.0 | 18.0 | 0.00 | 0.00 | 0.00 | 72 | 1007.3 |
| 20260504224149 | 59 | 250 | 9.0 | 18.0 | 0.00 | 0.00 | 0.00 | 72 | 1007.3 |
| 20260504223149 | 59 | 252 | 10.0 | 20.0 | 0.00 | 0.00 | 0.00 | 72 | 1007.2 |
| 20260504222650 | 59 | 251 | 8.0 | 16.0 | 0.00 | 0.00 | 0.00 | 71 | 1007.3 |
| 20260504222148 | 60 | 248 | 10.0 | 19.0 | 0.00 | 0.00 | 0.00 | 70 | 1007.3 |
| 20260504221650 | 60 | 257 | 10.0 | 19.0 | 0.00 | 0.00 | 0.00 | 70 | 1007.5 |
| 20260504221150 | 60 | 258 | 8.0 | 17.0 | 0.00 | 0.00 | 0.00 | 70 | 1007.5 |
| 20260504220649 | 60 | 220 | 7.0 | 14.0 | 0.00 | 0.00 | 0.00 | 70 | 1007.5 |
| 20260504220146 | 60 | 231 | 7.0 | 17.0 | 0.00 | 0.00 | 0.00 | 70 | 1007.5 |
| 20260504215647 | 60 | 251 | 8.0 | 17.0 | 0.00 | 0.00 | 0.00 | 70 | 1007.5 |
| 20260504215146 | 60 | 268 | 9.0 | 17.0 | 0.00 | 0.00 | 0.00 | 69 | 1007.5 |
| 20260504214647 | 60 | 239 | 9.0 | 17.0 | 0.00 | 0.00 | 0.00 | 69 | 1007.6 |
| 20260504214147 | 61 | 245 | 11.0 | 20.0 | 0.00 | 0.00 | 0.00 | 68 | 1007.6 |
| 20260504213146 | 60 | 257 | 12.0 | 18.0 | 0.00 | 0.00 | 0.00 | 70 | 1007.7 |
| 20260504212644 | 60 | 245 | 12.0 | 19.0 | 0.00 | 0.00 | 0.00 | 69 | 1007.7 |
| 20260504212146 | 60 | 260 | 13.0 | 21.0 | 0.00 | 0.00 | 0.00 | 69 | 1007.7 |
| 20260504211644 | 60 | 248 | 13.0 | 21.0 | 0.00 | 0.00 | 0.00 | 69 | 1007.7 |
| 20260504211145 | 60 | 251 | 11.0 | 21.0 | 0.00 | 0.00 | 0.00 | 71 | 1007.7 |
| 20260504210644 | 60 | 249 | 11.0 | 17.0 | 0.00 | 0.00 | 0.00 | 71 | 1007.6 |
| 20260504210144 | 60 | 249 | 13.0 | 19.0 | 0.00 | 0.00 | 0.00 | 70 | 1007.6 |
| 20260504205645 | 60 | 247 | 13.0 | 19.0 | 0.00 | 0.00 | 0.00 | 70 | 1007.6 |
| 20260504205144 | 60 | 261 | 13.0 | 19.0 | 0.00 | 0.00 | 0.00 | 71 | 1007.6 |
| 20260504204646 | 60 | 240 | 12.0 | 19.0 | 0.00 | 0.00 | 0.00 | 69 | 1007.6 |
| 20260504204145 | 60 | 265 | 11.0 | 18.0 | 0.00 | 0.00 | 0.00 | 69 | 1007.6 |
| 20260504203645 | 60 | 249 | 10.0 | 18.0 | 0.00 | 0.00 | 0.00 | 70 | 1007.7 |
| 20260504203144 | 59 | 264 | 10.0 | 16.0 | 0.00 | 0.00 | 0.00 | 71 | 1007.7 |
| 20260504202644 | 59 | 260 | 11.0 | 16.0 | 0.00 | 0.00 | 0.00 | 71 | 1007.7 |
| 20260504202144 | 60 | 253 | 12.0 | 20.0 | 0.00 | 0.00 | 0.00 | 69 | 1007.7 |
| 20260504201644 | 60 | 258 | 11.0 | 20.0 | 0.00 | 0.00 | 0.00 | 68 | 1007.7 |
| 20260504201144 | 60 | 251 | 11.0 | 18.0 | 0.00 | 0.00 | 0.00 | 68 | 1007.7 |
| 20260504200642 | 62 | 262 | 12.0 | 20.0 | 0.00 | 0.00 | 0.00 | 64 | 1007.8 |
| 20260504195643 | 63 | 254 | 10.0 | 23.0 | 0.00 | 0.00 | 0.00 | 62 | 1007.9 |
| 20260504195142 | 63 | 257 | 5.0 | 18.0 | 0.00 | 0.00 | 0.00 | 61 | 1007.9 |
| 20260504194642 | 63 | 274 | 2.0 | 11.0 | 0.00 | 0.00 | 0.00 | 60 | 1007.9 |
| 20260504194144 | 62 | 257 | 0.0 | 4.0 | 0.00 | 0.00 | 0.00 | 61 | 1007.9 |
| 20260504193642 | 62 | 224 | 0.0 | 5.0 | 0.00 | 0.00 | 0.00 | 65 | 1007.9 |
| 20260504193143 | 62 | 270 | 0.0 | 5.0 | 0.00 | 0.00 | 0.00 | 65 | 1007.9 |
| 20260504192640 | 62 | 251 | 0.0 | 5.0 | 0.00 | 0.00 | 0.00 | 64 | 1008.0 |
| 20260504192140 | 62 | 249 | 0.0 | 5.0 | 0.00 | 0.00 | 0.00 | 64 | 1008.1 |
| 20260504191640 | 62 | 216 | 0.0 | 3.0 | 0.00 | 0.00 | 0.00 | 65 | 1008.2 |
| 20260504190641 | 61 | 260 | 1.0 | 6.0 | 0.00 | 0.00 | 0.00 | 65 | 1008.2 |
| 20260504190140 | 62 | 257 | 1.0 | 7.0 | 0.00 | 0.00 | 0.00 | 65 | 1008.3 |
| 20260504185640 | 62 | 248 | 1.0 | 7.0 | 0.00 | 0.00 | 0.00 | 64 | 1008.3 |
| 20260504185141 | 62 | 311 | 1.0 | 8.0 | 0.00 | 0.00 | 0.00 | 62 | 1008.3 |
| 20260504184642 | 62 | 264 | 1.0 | 8.0 | 0.00 | 0.00 | 0.00 | 61 | 1008.3 |
| 20260504184140 | 62 | 253 | 0.0 | 9.0 | 0.00 | 0.00 | 0.00 | 63 | 1008.4 |
| 20260504183638 | 62 | 253 | 1.0 | 9.0 | 0.00 | 0.00 | 0.00 | 63 | 1008.6 |
| 20260504183139 | 62 | 238 | 1.0 | 6.0 | 0.00 | 0.00 | 0.00 | 62 | 1008.6 |
| 20260504182638 | 62 | 238 | 0.0 | 5.0 | 0.00 | 0.00 | 0.00 | 62 | 1008.6 |
| 20260504182138 | 62 | 261 | 0.0 | 5.0 | 0.00 | 0.00 | 0.00 | 62 | 1008.7 |
| 20260504181639 | 62 | 268 | 1.0 | 7.0 | 0.00 | 0.00 | 0.00 | 62 | 1008.8 |
| 20260504181138 | 62 | 256 | 1.0 | 7.0 | 0.00 | 0.00 | 0.00 | 62 | 1008.8 |
| 20260504180639 | 62 | 243 | 1.0 | 6.0 | 0.00 | 0.00 | 0.00 | 61 | 1008.9 |
| 20260504180138 | 62 | 266 | 1.0 | 7.0 | 0.00 | 0.00 | 0.00 | 61 | 1008.9 |
| 20260504175640 | 61 | 227 | 1.0 | 7.0 | 0.00 | 0.00 | 0.00 | 61 | 1009.0 |
| 20260504175138 | 61 | 258 | 1.0 | 5.0 | 0.00 | 0.00 | 0.00 | 63 | 1009.0 |
| 20260504174636 | 62 | 260 | 1.0 | 4.0 | 0.00 | 0.00 | 0.00 | 61 | 1009.1 |
| 20260504174137 | 62 | 247 | 1.0 | 8.0 | 0.00 | 0.00 | 0.00 | 60 | 1009.2 |
| 20260504173636 | 62 | 248 | 1.0 | 8.0 | 0.00 | 0.00 | 0.00 | 60 | 1009.2 |
| 20260504173136 | 61 | 237 | 1.0 | 4.0 | 0.00 | 0.00 | 0.00 | 61 | 1009.2 |
| 20260504172636 | 61 | 263 | 1.0 | 4.0 | 0.00 | 0.00 | 0.00 | 62 | 1009.3 |
| 20260504172136 | 61 | 258 | 1.0 | 7.0 | 0.00 | 0.00 | 0.00 | 63 | 1009.4 |
| 20260504171635 | 61 | 287 | 1.0 | 8.0 | 0.00 | 0.00 | 0.00 | 61 | 1009.3 |
| 20260504171136 | 60 | 239 | 1.0 | 8.0 | 0.00 | 0.00 | 0.00 | 62 | 1009.5 |
| 20260504170636 | 61 | 264 | 1.0 | 6.0 | 0.00 | 0.00 | 0.00 | 60 | 1009.4 |
| 20260504170135 | 61 | 247 | 1.0 | 6.0 | 0.00 | 0.00 | 0.00 | 60 | 1009.6 |
| 20260504160133 | 60 | 260 | 1.0 | 6.0 | 0.00 | 0.00 | 0.00 | 61 | 1010.3 |
| 20260504151131 | 59 | 333 | 1.0 | 8.0 | 0.00 | 0.00 | 0.00 | 63 | 1011.1 |
| 20260504150630 | 59 | 249 | 0.0 | 3.0 | 0.00 | 0.00 | 0.00 | 63 | 1011.1 |
| 20260504150131 | 59 | 239 | 0.0 | 4.0 | 0.00 | 0.00 | 0.00 | 64 | 1011.2 |
| 20260504141128 | 58 | 270 | 1.0 | 7.0 | 0.00 | 0.00 | 0.00 | 65 | 1011.5 |
| 20260504140627 | 58 | 275 | 1.0 | 9.0 | 0.00 | 0.00 | 0.00 | 65 | 1011.5 |
| 20260504140127 | 57 | 268 | 1.0 | 9.0 | 0.00 | 0.00 | 0.00 | 64 | 1011.5 |
| 20260504130625 | 56 | 250 | 0.0 | 4.0 | 0.00 | 0.00 | 0.00 | 65 | 1012.0 |
| 20260504130125 | 56 | 281 | 1.0 | 4.0 | 0.00 | 0.00 | 0.00 | 66 | 1012.1 |
| 20260504120124 | 55 | 288 | 1.0 | 7.0 | 0.00 | 0.00 | 0.00 | 59 | 1012.2 |
| 20260504110622 | 53 | 296 | 1.0 | 6.0 | 0.00 | 0.00 | 0.00 | 65 | 1012.1 |
| 20260504110121 | 53 | 295 | 1.0 | 6.0 | 0.00 | 0.00 | 0.00 | 65 | 1012.1 |
| 20260504100118 | 51 | 320 | 0.0 | 2.0 | 0.00 | 0.00 | 0.00 | 61 | 1011.7 |
| 20260504081613 | 52 | 15 | 0.0 | 2.0 | 0.00 | 0.00 | 0.00 | 55 | 1011.2 |
| 20260504081114 | 52 | 9 | 0.0 | 1.0 | 0.00 | 0.00 | 0.00 | 55 | 1011.2 |
| 20260504080613 | 51 | 359 | 0.0 | 1.0 | 0.00 | 0.00 | 0.00 | 55 | 1011.2 |
| 20260504080114 | 51 | 8 | 0.0 | 1.0 | 0.00 | 0.00 | 0.00 | 55 | 1011.2 |